Location: McKinney
(33.1972°N, 96.6398°W)
Time: 12:46:14
(UTC-05:00)

Envisat - Visible Passes

Search period start: 25 April 2019 00:00
Search period end: 05 May 2019 00:00
Orbit: 764 x 766 km, 98.2° (Epoch: 24 April)

Date Brightness Start Highest point End Pass type
(mag) Time Alt. Az. Time Alt. Az. Time Alt. Az.
25 Apr 5.2 20:55:50 10° SSW 21:00:02 26° W 21:04:17 10° NW visible
27 Apr 5.8 21:23:10 10° SW 21:25:45 14° W 21:28:22 10° WNW visible
28 Apr 4.8 20:44:12 10° SSW 20:48:46 34° W 20:53:22 10° NNW visible
30 Apr 5.7 21:10:59 10° SW 21:14:27 18° W 21:17:55 10° NW visible
01 May 4.3 20:32:42 10° S 20:37:31 44° W 20:42:21 10° NNW visible
03 May 5.4 20:59:07 10° SSW 21:03:09 24° W 21:07:12 10° NW visible
